Location: Lecco
(45.8566°N, 9.3977°E)
Time: 18:31:57
(UTC+02:00)

S-56A Canister/Altair - Pass Details

Date: 24 July 2019
Orbit: 633 x 2499 km, 38.9° (Epoch: 21 August)

Event Time Altitude Azimuth Distance (km) Brightness Sun altitude
Rises 14:25:18 0° 282° (WNW) 6,110 12.2 61.5°
Reaches altitude 10° 14:30:42 10° 269° (W) 5,162 12.1 61.1°
Maximum altitude 14:40:20 21° 229° (SW) 4,210 12.2 60.1°
Drops below altitude 10° 14:49:17 10° 187° (S) 4,716 12.1 59.2°
Sets 14:53:58 0° 173° (S) 5,449 12.2 58.7°
